COSMOS 1275 DEB, 42213

Orbit data source: Space-Track

COSMOS 1275 DEB, 42213 is space debris in LEO originally from a launch on Thu, 04 Jun 1981 UTC launched from the Plesetsk Missile And Space Complex (PKMTR). Debris objects in space refer to the collection of defunct objects orbiting the Earth. Examples of debris include non-operational satellites, rocket bodies, and fragments generated from explosions, collisions, or faulty payload assembly.

Loading next visibility...
Identifier
42213, 1981-053UD
Orbit
LEO
Country
Flag of CISCIS
Related business
Manufacturer
Unknown
Mission
Spacecraft
Bus & Motor
Unknown
Mass
Unknown
Launch date (UTC)
1981-06-04 (45 years ago)
Launch vehicle
Unknown
Launch site
Plesetsk Missile And Space Complex (PKMTR)
Object type
Payload
Rocket body
Debris
Shape & HBR
Unknown shape, 0.1 m
Radar Cross Section
Small (<0.1 m²)

Expand to show TLE details & history
Last TLE update: 1 day ago

TLE from 1 day ago
0 COSMOS 1275 DEB
1 42213U 81053UD  26070.97812871  .00003682  00000-0  16117-2 0  9994
2 42213  82.8185 153.4783 0043057  62.6489 297.9065 14.23036682190284
Epoch: 2026-03-11T23:28Z
TLE epoch observation values (Epoch: 2026-03-11T23:28:30.320Z)
Latitude
-0.00011°
Longitude
-8.28266°
Altitude
803.67 km
Speed
7.459 km/s
True Right ascension
10h 13m 54s
True Declination
0° 00' 00"
Sunlit
Object was in full shadow at epoch
Visualization orbit readout
Latitude
Unknown
Longitude
Unknown
Altitude
Unknown
Speed
Unknown
Apparent Right ascension
Unknown
Apparent Declination
Unknown
Sunlit
N/A
Visualization observer readout
Local Sidereal Time
11:43:52
Azimuth
Unknown
Elevation
Unknown
Doppler factor
Unknown
Orbital elements
Apogee altitude
843.148 km
Perigee altitude
781.229 km
Semi-major axis
7,190.326 km
Eccentricity
0.00431
Inclination
82.8185°
RAAN
153.4783°
Arg. of periapsis
62.6489°
True anomaly
297.46938°
Mean anomaly
297.9065°
Eccentric anomaly
297.68805°
Mean motion
3.55976 °/min
Orbital period
101.13 mins
BSTAR
0.0016117
Loading maneuver chart data...
Computing Atmospheric mass density...
Loading historical data...
Loading historical data...
Loading historical data...
Loading historical data...
Loading historical data...
Loading historical data...
Loading historical data...

Documentation

Showing up to 5 results
|